Regional Weather Roundup
Issued by NWS Spokane, WA

Home | Current Version | Previous Version | Text Only | Print | Product List | Glossary On
Versions: 1 2 3 4 5 6 7 8 9 10 11 12 13 14 15 16 17 18 19 20 21 22 23 24 25 26 27 28 29 30 31 32 33 34 35 36 37 38 39 40 41 42 43 44 45 46 47 48 49 50
000
NZUS01 KOTX 230925
RWROTX

Eastern Washington/Northern Idaho Roundup
National Weather Service, Spokane WA
100 AM PST FRI FEB 23 2018

Note: "fair" indicated few or no clouds below 12,000 feet with no
significant weather and/or obstructions to visibility.

...Northeast Washington and Northern Idaho Panhandle...

CITY           SKY/WX    TMP DP  RH WIND       PRES   REMARKS
Spokane Intl   MOCLDY    13   6  74 SW6       30.25R WCI   4
Spokane Downto MOCLDY    17  12  80 CALM      30.28S
Coeur d Alene  MOCLDY    11   7  84 CALM      30.25R
Deer Park      CLEAR      2   0  91 NW5       30.26S WCI  -8
Sandpoint        N/A      5   3  92 CALM      30.27S
Bonners Ferry  FAIR       7   3  85 CALM      30.24S

...Southeast Washington and southern Idaho Panhandle...

CITY           SKY/WX    TMP DP  RH WIND       PRES   REMARKS
Walla Walla    CLOUDY    26  17  68 S10       30.38R WCI  16
Pullman/Moscow CLOUDY    21  17  84 W8        30.27S WCI  11
Lewiston       CLOUDY    28  14  55 W5        30.33R WCI  23
Lowell           N/A     25  21  85 CALM      30.33R
Grangeville    CLOUDY    18  16  93 SW7       30.21R WCI   8

...Columbia Basin...

CITY           SKY/WX    TMP DP  RH WIND       PRES   REMARKS
Ephrata        CLEAR     22   6  50 NW7       30.34S WCI  13
Moses Lake     CLEAR     18  10  71 S3        30.36S
Pasco          CLEAR     15  10  80 CALM      30.44S
Richland       SUNNY     18  11  74 CALM      30.44S
Hermiston      CLEAR     14  12  92 CALM      30.43R
Pendleton      CLEAR     15  10  80 S7        30.37R WCI   5

...East Slopes Cascades...

CITY           SKY/WX    TMP DP  RH WIND       PRES   REMARKS
The Dalles     CLEAR     18  12  77 SE6       30.49S WCI  10
Yakima         CLEAR     16  10  77 W7        30.41R WCI   6
Ellensburg     CLEAR     18   8  65 N3        30.35R
Stampede Pass  PTCLDY    14  11  87 S5        30.20S WCI   6
Wenatchee      CLEAR     19  12  74 W6        30.37S WCI  11
Winthrop       FAIR       3  -2  81 NW3       30.38S
Omak           CLEAR     15   7  70 N5        30.37S WCI   8
Sunnyside      SUNNY     12   8  81 CALM      30.43R

...Southern British Columbia...

CITY           SKY/WX    TMP DP  RH WIND       PRES   REMARKS
Penticton      CLEAR      9   1  72 CALM      30.40S
Cranbrook      CLEAR     -2  -6  84 S5        30.18F WCI -12
Osoyoos          N/A     14   7  73 CALM        N/A
Creston          N/A     12   3  67 E5          N/A  WCI   4

...Western Montana...

CITY           SKY/WX    TMP DP  RH WIND       PRES   REMARKS
Kalispell      SUNNY     -1  -4  87 W3        30.18S
Missoula       PTCLDY     6   0  76 CALM      30.18R

...Neighboring Cities...

CITY           SKY/WX    TMP DP  RH WIND       PRES   REMARKS
Seattle        PTCLDY    26  20  77 SE8       30.44R WCI  18
Portland       CLEAR     28  22  78 SE8       30.48S WCI  20
Boise          CLEAR     17  11  77 W6        30.15R WCI   9
Great Falls    PTCLDY    -7 -11  83 SW8       30.12F WCI -23
Calgary        CLEAR      1  -4  78 S7        29.95F WCI -11



USA.gov is the U.S. government's official web portal to all federal, state and local government web resources and services.